Roros Lufthavn, Norway

10:29 PM CET on December 09, 2019 (GMT +0100)
Roros

Weather History for ENRO - October, 2019

Change the Weather History Date:

Tuesday, October 15, 2019

  Actual Average Record
Temperature  
Mean Temperature 26 °F -  
Max Temperature 37 °F 39 °F 53 °F (2001)
Min Temperature 15 °F 29 °F 12 °F (2016)
Degree Days  
Heating Degree Days 39    
Moisture  
Dew Point 28 °F    
Average Humidity 99    
Maximum Humidity 100    
Minimum Humidity 93    
Precipitation  
Precipitation 0.00 in - - ()
Sea Level Pressure  
Sea Level Pressure 29.93 in    
Wind  
Wind Speed 2 mph ()    
Max Wind Speed 8 mph    
Max Gust Speed -    
Visibility 5.5 miles    
Events Fog    
Averages and records for this station are not official NWS values.
T = Trace of Precipitation, MM = Missing Value Source: Averaged Metar Reports

Daily Weather History Graph

Daily Weather History Graph

Search for Another Location

Airport or City:

Astronomy

Oct. 15, 2019 Rise Set
Actual Time 7:59 AM CEST 6:00 PM CEST
Civil Twilight 7:13 AM CEST 6:46 PM CEST
Nautical Twilight 6:20 AM CEST 7:38 PM CEST
Astronomical Twilight 5:27 AM CEST 8:31 PM CEST
Moon 6:53 PM CEST (10/15) 9:24 AM CEST (10/15)
Length of Visible Light 11h 33m
Length of Day
10h 01m
Full, 98% of the Moon is Illuminated
Oct 15
Full
Oct 21
Last Quarter
Oct 28
New
Nov 4
First Quarter
Nov 12
Full

Hourly Weather History & Observations

Time (CEST) Temp. Windchill Dew Point Humidity Pressure Visibility Wind Dir Wind Speed Gust Speed Precip Events Conditions
12:20 AM 19.4 °F - 19.4 °F 100% 29.95 in 6.2 mi Calm Calm - N/A   Unknown
1:20 AM 17.6 °F - 17.6 °F 100% 29.95 in 6.2 mi Calm Calm - N/A   Unknown
1:50 AM 17.6 °F - 17.6 °F 100% 29.95 in 6.2 mi Variable 1.2 mph - N/A   Unknown
2:20 AM 17.6 °F - 17.6 °F 100% 29.95 in 6.2 mi Calm Calm - N/A   Partly Cloudy
2:50 AM 19.4 °F - 17.6 °F 93% 29.95 in 6.2 mi Variable 1.2 mph - N/A   Unknown
3:20 AM 15.8 °F - 15.8 °F 100% 29.98 in 6.2 mi Calm Calm - N/A   Unknown
3:50 AM 15.8 °F - 15.8 °F 100% 29.98 in 6.2 mi WNW 1.2 mph - N/A   Unknown
4:20 AM 15.8 °F - 14.0 °F 93% 29.98 in 6.2 mi Calm Calm - N/A   Unknown
4:50 AM 15.8 °F - 15.8 °F 100% 29.98 in 6.2 mi WNW 1.2 mph - N/A   Mostly Cloudy
5:20 AM 19.4 °F - 19.4 °F 100% 29.98 in 6.2 mi East 2.3 mph - N/A   Overcast
5:50 AM 19.4 °F - 19.4 °F 100% 29.98 in 0.3 mi Variable 2.3 mph - N/A Fog Light Freezing Fog
6:50 AM 21.2 °F - 21.2 °F 100% 29.95 in 1.6 mi Calm Calm - N/A   Unknown
7:50 AM 23.0 °F - 23.0 °F 100% 29.98 in 0.6 mi Variable 1.2 mph - N/A Fog Light Freezing Fog
8:20 AM 23.0 °F - 23.0 °F 100% 29.98 in 0.9 mi Variable 1.2 mph - N/A   Mist
8:50 AM 23.0 °F - 23.0 °F 100% 29.98 in 0.9 mi Variable 1.2 mph - N/A   Mist
9:20 AM 23.0 °F - 23.0 °F 100% 29.98 in 0.3 mi Variable 1.2 mph - N/A Fog Light Freezing Fog
9:50 AM 24.8 °F - 24.8 °F 100% 29.98 in 6.2 mi Variable 1.2 mph - N/A   Mostly Cloudy
10:20 AM 24.8 °F - 24.8 °F 100% 29.95 in 6.2 mi Variable 1.2 mph - N/A   Mostly Cloudy
10:50 AM 26.6 °F - 26.6 °F 100% 29.95 in 6.2 mi Variable 1.2 mph - N/A   Scattered Clouds
11:20 AM 26.6 °F - 26.6 °F 100% 29.95 in 6.2 mi Calm Calm - N/A   Scattered Clouds
11:50 AM 26.6 °F - 26.6 °F 100% 29.95 in 6.2 mi Variable 1.2 mph - N/A   Mostly Cloudy
12:20 PM 28.4 °F - 28.4 °F 100% 29.95 in 6.2 mi Variable 1.2 mph - N/A   Mostly Cloudy
12:50 PM 30.2 °F - 30.2 °F 100% 29.95 in 6.2 mi Variable 1.2 mph - N/A   Mostly Cloudy
1:20 PM 30.2 °F - 30.2 °F 100% 29.95 in 6.2 mi Variable 1.2 mph - N/A   Mostly Cloudy
1:50 PM 32.0 °F - 32.0 °F 100% 29.92 in 6.2 mi Variable 1.2 mph - N/A   Mostly Cloudy
2:50 PM 33.8 °F - 33.8 °F 100% 29.92 in 6.2 mi Variable 2.3 mph - N/A   Mostly Cloudy
3:20 PM 35.6 °F - 35.6 °F 100% 29.92 in 6.2 mi Variable 1.2 mph - N/A   Mostly Cloudy
3:50 PM 37.4 °F 33.8 °F 37.4 °F 100% 29.92 in 6.2 mi South 4.6 mph - N/A   Mostly Cloudy
4:20 PM 37.4 °F 34.9 °F 37.4 °F 100% 29.92 in 6.2 mi South 3.5 mph - N/A   Mostly Cloudy
4:50 PM 37.4 °F - 37.4 °F 100% 29.89 in 6.2 mi Variable 2.3 mph - N/A   Mostly Cloudy
5:20 PM 37.4 °F - 37.4 °F 100% 29.89 in 6.2 mi Variable 2.3 mph - N/A   Mostly Cloudy
5:50 PM 37.4 °F 34.9 °F 35.6 °F 93% 29.89 in 6.2 mi SSE 3.5 mph - N/A   Overcast
6:20 PM 37.4 °F 32.1 °F 35.6 °F 93% 29.89 in 6.2 mi ESE 6.9 mph - N/A   Mostly Cloudy
6:50 PM 37.4 °F 32.1 °F 35.6 °F 93% 29.89 in 6.2 mi SE 6.9 mph - N/A   Overcast
7:20 PM 37.4 °F 31.4 °F 37.4 °F 100% 29.89 in 6.2 mi ESE 8.1 mph - N/A   Mostly Cloudy
7:50 PM 35.6 °F 31.7 °F 35.6 °F 100% 29.89 in 6.2 mi East 4.6 mph - N/A   Overcast
8:20 PM 37.4 °F 31.4 °F 37.4 °F 100% 29.89 in 6.2 mi SE 8.1 mph - N/A   Overcast
8:50 PM 37.4 °F 32.8 °F 37.4 °F 100% 29.89 in 6.2 mi ESE 5.8 mph - N/A   Overcast
9:20 PM 37.4 °F 32.8 °F 35.6 °F 93% 29.89 in 6.2 mi East 5.8 mph - N/A   Overcast
9:50 PM 35.6 °F - 35.6 °F 100% 29.89 in 6.2 mi Variable 2.3 mph - N/A   Overcast
10:20 PM 35.6 °F - 35.6 °F 100% 29.89 in 6.2 mi Variable 2.3 mph - N/A   Overcast
10:50 PM 35.6 °F - 35.6 °F 100% 29.89 in 6.2 mi Variable 2.3 mph - N/A   Overcast
11:20 PM 35.6 °F - 35.6 °F 100% 29.89 in 6.2 mi Variable 1.2 mph - N/A   Overcast
11:50 PM 35.6 °F - 35.6 °F 100% 29.86 in 6.2 mi Variable 2.3 mph - N/A   Overcast